When you browse on this site, cookies collect data to enhance your experience and personalize the content and advertising you see.
Visit our Privacy Policy to learn more. By continuing to use the site, you agree to this use of cookies and data.
  • In France
  • List of Countries
  • For 7 days
  • Water Temperature
  • Satellite Maps
  • Weather Map
  • Weather Widgets
  • user-avatar
    Login

    Hourly Weather Perth

    Today, 21 March, Thursday

    Time Temperature Precipitation Wind Pressure Humidity
    00:00 +27°C° 0 mm 2 mps 755 mmHg 66%
    01:00 +27°C° 0 mm 2 mps 755 mmHg 63%
    02:00 +28°C° 0 mm 3 mps 755 mmHg 57%
    03:00 +27°C° 0.5 mm 3 mps 755 mmHg 61%
    04:00 +26°C° 0.5 mm 4 mps 755 mmHg 65%
    05:00 +26°C° 0.5 mm 4 mps 755 mmHg 70%
    06:00 +26°C° 0.1 mm 3 mps 755 mmHg 68%
    07:00 +26°C° 0.1 mm 3 mps 755 mmHg 67%
    08:00 +27°C° 0.1 mm 2 mps 755 mmHg 66%
    09:00 +28°C° 0.1 mm 2 mps 755 mmHg 62%
    10:00 +29°C° 0.1 mm 2 mps 755 mmHg 57%
    11:00 +30°C° 0.1 mm 1 mps 755 mmHg 53%
    12:00 +32°C° 0 mm 2 mps 754 mmHg 48%
    13:00 +35°C° 0 mm 2 mps 754 mmHg 43%
    14:00 +36°C° 0 mm 2 mps 754 mmHg 38%
    15:00 +35°C° 0 mm 3 mps 753 mmHg 43%
    16:00 +34°C° 0 mm 4 mps 753 mmHg 47%
    17:00 +32°C° 0 mm 5 mps 753 mmHg 51%
    18:00 +30°C° 0 mm 4 mps 754 mmHg 56%
    19:00 +29°C° 0 mm 3 mps 754 mmHg 61%
    20:00 +27°C° 0 mm 3 mps 754 mmHg 66%
    21:00 +27°C° 0 mm 3 mps 755 mmHg 68%
    22:00 +26°C° 0 mm 4 mps 755 mmHg 71%
    23:00 +26°C° 0 mm 5 mps 755 mmHg 73%

    Tomorrow, 22 March, Friday

    Time Temperature Precipitation Wind Pressure Humidity
    00:00 +25°C° 0 mm 4 mps 755 mmHg 74%
    01:00 +25°C° 0 mm 4 mps 755 mmHg 76%
    02:00 +24°C° 0 mm 3 mps 755 mmHg 77%
    03:00 +24°C° 0 mm 3 mps 755 mmHg 79%
    04:00 +22°C° 0 mm 3 mps 756 mmHg 80%
    05:00 +22°C° 0 mm 3 mps 756 mmHg 82%
    06:00 +22°C° 0 mm 3 mps 756 mmHg 80%
    07:00 +22°C° 0 mm 4 mps 756 mmHg 78%
    08:00 +23°C° 0 mm 4 mps 757 mmHg 76%
    09:00 +25°C° 0 mm 4 mps 757 mmHg 72%
    10:00 +26°C° 0 mm 5 mps 757 mmHg 67%
    11:00 +26°C° 0 mm 5 mps 758 mmHg 62%
    12:00 +27°C° 0 mm 5 mps 757 mmHg 59%
    13:00 +28°C° 0 mm 5 mps 757 mmHg 56%
    14:00 +28°C° 0 mm 6 mps 757 mmHg 53%
    15:00 +28°C° 0 mm 5 mps 757 mmHg 53%
    16:00 +28°C° 0 mm 5 mps 757 mmHg 53%
    17:00 +27°C° 0 mm 5 mps 757 mmHg 53%
    18:00 +26°C° 0 mm 5 mps 758 mmHg 55%
    19:00 +25°C° 0 mm 5 mps 759 mmHg 57%
    20:00 +23°C° 0 mm 5 mps 759 mmHg 59%
    21:00 +22°C° 0 mm 5 mps 760 mmHg 60%
    22:00 +20°C° 0 mm 6 mps 760 mmHg 61%
    23:00 +19°C° 0 mm 6 mps 761 mmHg 62%

    Day after tomorrow, 23 March, Saturday

    Time Temperature Precipitation Wind Pressure Humidity
    00:00 +17°C° 0 mm 6 mps 761 mmHg 62%
    01:00 +17°C° 0 mm 6 mps 761 mmHg 63%
    02:00 +16°C° 0 mm 6 mps 761 mmHg 64%
    03:00 +16°C° 0 mm 6 mps 761 mmHg 65%
    04:00 +16°C° 0 mm 5 mps 762 mmHg 66%
    05:00 +15°C° 0 mm 5 mps 762 mmHg 67%
    06:00 +16°C° 0 mm 5 mps 762 mmHg 65%
    07:00 +16°C° 0 mm 5 mps 762 mmHg 64%
    08:00 +16°C° 0 mm 6 mps 762 mmHg 62%
    09:00 +19°C° 0 mm 5 mps 762 mmHg 54%
    10:00 +21°C° 0 mm 5 mps 762 mmHg 47%
    11:00 +22°C° 0 mm 5 mps 762 mmHg 39%
    12:00 +25°C° 0 mm 5 mps 761 mmHg 35%
    13:00 +26°C° 0 mm 5 mps 761 mmHg 30%
    14:00 +27°C° 0 mm 4 mps 760 mmHg 26%
    15:00 +27°C° 0 mm 4 mps 760 mmHg 27%
    16:00 +27°C° 0 mm 4 mps 759 mmHg 27%
    17:00 +27°C° 0 mm 4 mps 759 mmHg 28%
    18:00 +25°C° 0 mm 4 mps 759 mmHg 31%
    19:00 +23°C° 0 mm 4 mps 760 mmHg 35%
    20:00 +21°C° 0 mm 4 mps 760 mmHg 39%
    21:00 +21°C° 0 mm 4 mps 760 mmHg 41%
    22:00 +20°C° 0 mm 4 mps 761 mmHg 43%
    23:00 +19°C° 0 mm 4 mps 761 mmHg 46%

    24 March, Sunday

    Time Temperature Precipitation Wind Pressure Humidity
    00:00 +18°C° 0 mm 4 mps 761 mmHg 48%
    01:00 +18°C° 0 mm 3 mps 760 mmHg 50%
    02:00 +17°C° 0 mm 3 mps 760 mmHg 52%
    03:00 +17°C° 0 mm 3 mps 760 mmHg 55%
    04:00 +15°C° 0 mm 4 mps 760 mmHg 58%
    05:00 +14°C° 0 mm 4 mps 760 mmHg 61%
    06:00 +15°C° 0 mm 4 mps 761 mmHg 60%
    07:00 +15°C° 0 mm 4 mps 761 mmHg 59%
    08:00 +16°C° 0 mm 5 mps 762 mmHg 59%
    09:00 +19°C° 0 mm 5 mps 761 mmHg 53%
    10:00 +21°C° 0 mm 5 mps 761 mmHg 47%
    11:00 +23°C° 0 mm 5 mps 761 mmHg 41%
    12:00 +25°C° 0 mm 4 mps 760 mmHg 39%
    13:00 +26°C° 0 mm 4 mps 760 mmHg 36%
    14:00 +28°C° 0 mm 4 mps 759 mmHg 34%
    15:00 +28°C° 0 mm 4 mps 759 mmHg 35%
    16:00 +27°C° 0 mm 4 mps 759 mmHg 35%
    17:00 +27°C° 0 mm 4 mps 759 mmHg 36%
    18:00 +26°C° 0 mm 5 mps 760 mmHg 39%
    19:00 +23°C° 0 mm 5 mps 760 mmHg 42%
    20:00 +22°C° 0 mm 5 mps 761 mmHg 45%
    21:00 +21°C° 0 mm 5 mps 762 mmHg 47%
    22:00 +20°C° 0 mm 6 mps 762 mmHg 48%
    23:00 +19°C° 0 mm 6 mps 762 mmHg 49%

    25 March, Monday

    Time Temperature Precipitation Wind Pressure Humidity
    00:00 +17°C° 0 mm 6 mps 763 mmHg 52%
    01:00 +16°C° 0 mm 6 mps 763 mmHg 55%
    02:00 +15°C° 0 mm 7 mps 763 mmHg 58%
    03:00 +15°C° 0 mm 7 mps 763 mmHg 59%
    04:00 +14°C° 0 mm 7 mps 763 mmHg 60%
    05:00 +14°C° 0 mm 7 mps 763 mmHg 61%
    06:00 +14°C° 0 mm 7 mps 764 mmHg 60%
    07:00 +14°C° 0 mm 7 mps 764 mmHg 59%
    08:00 +15°C° 0 mm 7 mps 765 mmHg 58%
    09:00 +17°C° 0 mm 7 mps 765 mmHg 51%
    10:00 +20°C° 0 mm 7 mps 764 mmHg 45%
    11:00 +22°C° 0 mm 7 mps 764 mmHg 38%
    12:00 +23°C° 0 mm 6 mps 764 mmHg 34%
    13:00 +24°C° 0 mm 6 mps 763 mmHg 31%
    14:00 +27°C° 0 mm 6 mps 762 mmHg 28%
    15:00 +27°C° 0 mm 5 mps 762 mmHg 28%
    16:00 +27°C° 0 mm 5 mps 762 mmHg 28%
    17:00 +27°C° 0 mm 5 mps 762 mmHg 29%
    18:00 +26°C° 0 mm 5 mps 762 mmHg 32%
    19:00 +23°C° 0 mm 5 mps 763 mmHg 35%
    20:00 +22°C° 0 mm 5 mps 763 mmHg 38%
    21:00 +22°C° 0 mm 6 mps 763 mmHg 40%
    22:00 +21°C° 0 mm 6 mps 763 mmHg 42%
    23:00 +21°C° 0 mm 6 mps 764 mmHg 44%

    26 March, Tuesday

    Time Temperature Precipitation Wind Pressure Humidity
    00:00 +20°C° 0 mm 6 mps 763 mmHg 46%
    01:00 +20°C° 0 mm 6 mps 763 mmHg 48%
    02:00 +18°C° 0 mm 7 mps 763 mmHg 51%
    03:00 +18°C° 0 mm 7 mps 763 mmHg 53%
    04:00 +17°C° 0 mm 7 mps 764 mmHg 55%
    05:00 +17°C° 0 mm 7 mps 764 mmHg 57%
    06:00 +17°C° 0 mm 7 mps 764 mmHg 55%
    07:00 +18°C° 0 mm 7 mps 764 mmHg 54%
    08:00 +18°C° 0 mm 7 mps 765 mmHg 52%
    09:00 +21°C° 0 mm 7 mps 764 mmHg 46%
    10:00 +23°C° 0 mm 6 mps 764 mmHg 41%
    11:00 +26°C° 0 mm 6 mps 763 mmHg 35%
    12:00 +27°C° 0 mm 6 mps 763 mmHg 32%
    13:00 +29°C° 0 mm 5 mps 762 mmHg 29%
    14:00 +30°C° 0 mm 5 mps 761 mmHg 27%
    15:00 +30°C° 0 mm 5 mps 761 mmHg 26%
    16:00 +30°C° 0 mm 4 mps 761 mmHg 26%
    17:00 +30°C° 0 mm 4 mps 761 mmHg 26%
    18:00 +29°C° 0 mm 4 mps 761 mmHg 28%
    19:00 +27°C° 0 mm 4 mps 761 mmHg 30%
    20:00 +26°C° 0 mm 4 mps 761 mmHg 32%
    21:00 +26°C° 0 mm 4 mps 761 mmHg 31%
    22:00 +26°C° 0 mm 5 mps 761 mmHg 31%
    23:00 +26°C° 0 mm 6 mps 761 mmHg 30%
    Show more